Theta_e
296 294 292 291 290 290 290 290 290 290 289 289 289 288 288 288 288 288 288 288 288 288 287 288 288 288 288 288 288 288 288 288 288 287 287 287 286 286 285 285 284 284
294 292 291 290 290 290 290 290 290 289 289 289 288 288 288 287 287 287 288 287 287 287 287 288 288 288 288 288 288 288 288 288 287 287 287 286 286 286 285 285 284 284
292 291 290 290 290 290 290 289 289 289 289 288 288 288 287 287 287 287 287 287 287 287 287 287 287 288 288 288 288 288 288 287 287 287 286 286 286 286 285 285 284 284
291 290 290 290 290 290 289 289 289 288 288 288 287 287 287 287 287 286 286 286 287 287 287 287 287 288 288 288 287 287 287 287 287 286 286 286 286 286 285 285 284 284
291 290 290 290 290 289 289 289 288 288 288 288 287 287 287 286 286 286 286 286 287 287 287 287 287 287 287 287 287 287 287 287 287 286 286 286 286 285 285 285 284 283
290 290 290 289 289 289 289 288 288 288 288 287 287 287 286 286 286 286 286 287 287 287 287 287 287 287 287 287 287 287 287 287 287 286 286 286 286 285 285 285 284 283
290 289 289 289 289 289 288 288 288 288 287 287 287 286 286 286 286 286 286 287 287 288 288 287 287 287 287 287 287 287 287 287 287 286 286 286 286 285 285 284 284 283
290 289 288 288 288 288 288 288 287 287 287 287 286 286 286 286 286 286 287 287 288 288 287 287 287 287 287 287 287 287 287 287 287 286 286 286 286 285 285 284 283 282
290 289 288 288 288 287 287 287 287 287 287 286 286 286 285 286 286 286 287 287 288 287 287 287 287 287 287 287 287 287 287 287 286 286 286 286 286 285 285 284 283 282
289 289 288 288 287 287 287 287 287 287 286 286 286 286 285 285 286 287 287 287 287 287 287 287 287 287 287 287 287 287 287 287 286 286 286 286 286 286 285 284 284 283
289 289 288 288 287 287 287 287 287 286 286 286 286 286 285 285 286 287 287 287 287 287 287 287 287 287 287 287 287 287 286 286 286 286 286 286 286 285 285 284 284 283
289 289 288 288 287 287 287 287 286 286 286 285 285 285 285 285 286 287 287 287 287 287 287 287 287 287 287 287 287 286 286 286 286 286 286 286 285 285 285 284 284 283
290 289 289 288 288 288 287 287 286 286 286 285 285 285 285 286 286 287 287 287 287 287 287 287 287 287 287 287 287 287 286 286 286 286 286 286 285 285 285 284 284 283
290 289 289 288 288 288 288 287 286 286 285 285 285 285 285 286 287 287 287 287 287 287 287 287 287 287 286 286 286 286 286 286 286 286 286 285 285 285 285 285 284 283
290 289 289 289 288 288 288 287 286 285 285 285 285 285 285 286 287 287 287 287 287 287 287 286 286 286 286 287 287 286 286 286 286 286 286 285 285 285 285 285 284 284
289 289 289 288 288 288 288 287 286 285 285 285 284 285 285 286 287 287 287 287 287 287 286 286 286 286 286 287 287 286 286 286 286 286 285 285 285 285 285 285 284 284
288 288 288 288 288 288 287 287 286 285 284 284 284 284 285 286 286 287 287 287 287 287 286 286 286 286 286 286 286 286 286 286 286 285 285 285 285 285 285 285 284 284
288 287 287 287 287 287 286 286 285 284 284 284 284 284 285 285 286 286 287 287 286 286 286 286 286 286 286 286 286 286 286 285 285 285 285 285 285 285 285 284 284 284
287 287 286 286 286 286 286 285 285 284 284 284 284 284 285 285 286 286 286 286 286 286 286 286 286 286 286 286 286 286 286 285 285 285 285 285 285 284 284 284 284 284
286 286 286 286 286 286 285 285 284 284 284 284 284 284 284 285 285 286 286 286 286 286 286 286 286 286 286 286 286 285 285 285 285 285 284 284 284 284 284 284 284 284
286 286 286 286 285 285 285 285 285 284 284 284 283 284 284 285 285 286 286 286 286 286 286 286 286 286 285 285 285 285 285 285 285 284 284 284 284 284 284 283 283 283
286 286 286 285 285 284 284 284 284 284 284 284 283 283 284 284 285 286 286 286 286 285 285 285 285 285 285 285 285 285 284 284 284 284 283 283 284 284 283 283 283 282
286 286 285 285 284 284 284 284 284 284 284 283 283 283 283 284 284 285 286 286 285 285 285 285 285 285 285 285 285 284 284 283 283 283 283 283 283 283 283 282 282 282
286 286 285 285 284 284 284 284 284 284 284 284 283 283 283 283 284 285 285 285 285 285 285 285 285 285 285 285 284 284 283 283 283 283 283 283 283 283 282 282 281 282
286 286 286 285 285 285 284 284 284 284 284 284 283 283 283 283 283 284 284 284 284 285 284 285 285 285 285 285 284 284 283 283 283 282 282 282 283 282 282 281 281 281
286 286 286 285 285 285 285 284 284 284 284 283 283 283 283 283 283 283 283 284 284 284 284 284 285 285 285 284 284 284 283 283 282 282 282 282 282 282 281 281 281 281
Wind_Speed
41 42 41 40 40 40 40 40 39 38 37 36 35 34 32 30 29 27 25 24 23 22 22 21 20 19 19 18 17 16 16 15 15 14 12 11 10 9 8 7 6 5
41 41 40 40 40 39 39 39 38 37 36 35 34 33 32 30 28 27 25 25 23 22 21 20 19 19 19 18 17 16 15 15 14 13 11 11 10 8 7 6 5 4
41 41 40 40 40 40 39 38 37 36 36 35 34 33 31 30 28 27 25 24 23 22 21 20 20 19 18 17 16 15 15 14 14 13 11 10 9 7 6 5 4 3
41 41 40 40 39 39 39 38 37 36 36 35 34 32 31 30 29 27 26 24 23 22 22 21 20 19 18 17 16 15 15 14 13 12 10 10 8 7 5 3 2 1
41 41 40 40 39 39 39 38 38 37 36 35 34 32 31 30 29 28 26 24 23 22 22 21 20 19 18 17 15 15 14 13 13 11 10 9 8 6 5 2 1 1
41 41 40 40 39 39 38 38 38 37 36 35 34 32 31 31 29 27 26 25 24 23 23 22 21 20 18 17 15 14 13 13 13 12 10 9 8 6 5 2 1 2
42 41 41 40 39 39 38 38 37 37 36 35 34 33 32 31 29 27 26 25 25 24 23 23 22 20 19 17 16 14 14 13 12 11 10 9 8 6 5 3 1 2
43 42 41 40 40 39 39 38 38 36 36 35 34 33 32 30 29 27 26 26 25 24 24 23 22 20 19 17 16 15 15 13 12 11 10 9 8 6 5 3 2 2
43 42 41 40 40 40 39 39 38 37 36 36 35 34 32 30 28 28 27 26 26 25 24 23 22 20 19 18 16 15 15 14 12 11 10 9 7 6 4 3 2 2
42 42 41 41 41 41 40 39 38 38 37 36 35 34 32 30 29 28 28 27 27 26 25 24 22 21 20 19 17 15 14 13 12 11 10 8 7 5 4 3 2 2
42 42 42 42 42 41 41 40 39 39 38 37 36 34 32 31 31 30 29 29 28 27 26 24 22 21 21 20 18 16 13 12 11 11 9 8 6 5 4 3 2 3
43 43 43 43 42 42 41 41 40 40 39 38 37 35 34 33 33 32 31 31 29 27 25 24 23 22 22 20 19 17 15 13 12 10 9 8 6 5 4 4 4 4
44 44 44 43 43 42 41 41 41 41 40 39 37 36 35 35 34 34 33 31 29 28 26 25 24 23 22 20 18 17 15 14 12 11 10 9 7 6 5 5 5 5
44 43 43 43 43 42 41 41 41 42 41 40 38 37 37 36 35 35 34 32 30 28 27 26 25 25 24 21 19 18 16 15 13 12 11 10 9 8 7 7 7 7
43 42 43 43 42 42 41 41 42 43 42 40 39 38 37 36 35 35 34 33 31 29 28 28 27 26 24 22 20 19 18 16 15 14 13 11 10 9 9 9 8 8
41 42 42 42 42 42 42 42 42 43 42 41 40 39 38 37 36 36 35 34 32 31 30 30 29 27 25 22 20 19 18 17 16 16 15 13 12 11 11 10 10 10
40 41 41 41 42 42 42 42 42 42 42 41 40 39 38 38 37 37 36 34 33 33 32 32 31 28 25 23 22 20 19 18 18 17 16 15 14 13 12 12 12 12
39 40 40 41 41 41 42 41 41 41 41 41 40 40 39 39 38 38 37 35 35 34 34 33 31 29 27 25 23 22 21 20 19 19 18 17 16 15 14 14 14 14
38 39 39 40 41 41 41 40 40 41 41 41 41 40 40 39 39 38 37 37 36 36 35 34 32 30 28 26 25 24 23 22 21 20 20 19 17 17 17 16 16 15
36 37 38 39 40 40 40 40 40 41 41 41 41 40 40 40 39 39 38 38 38 37 37 35 33 31 29 27 26 25 24 23 23 22 22 21 19 19 19 18 18 17
35 37 38 38 39 39 39 39 40 41 41 41 41 40 40 40 40 39 39 39 39 38 38 37 34 31 29 28 27 26 25 25 25 24 24 23 22 21 21 21 20 19
36 37 37 38 38 38 38 39 40 41 41 40 40 39 39 39 39 39 39 40 40 40 39 38 35 32 31 30 29 27 26 27 27 27 26 25 24 24 24 23 22 21
37 37 37 37 37 38 39 40 41 41 40 40 39 39 39 40 40 39 40 40 41 41 40 39 37 34 33 32 31 29 28 29 29 29 28 28 27 26 26 25 24 23
36 37 37 37 38 39 40 40 40 39 40 40 40 40 40 40 40 40 40 41 41 41 41 40 39 36 34 33 33 31 30 31 31 30 30 30 30 30 29 28 26 26
35 36 37 37 38 39 39 39 39 39 39 39 39 40 39 39 39 39 40 41 41 41 41 40 40 38 36 35 35 33 32 33 33 32 32 33 33 33 33 31 29 29
34 35 36 37 37 38 38 38 38 38 37 38 38 38 37 37 38 38 40 40 41 41 41 41 41 40 38 37 36 35 35 34 34 35 35 36 36 35 35 33 32 32
Wind_Direction
176 173 171 169 166 165 165 165 165 163 163 162 161 161 161 159 158 157 156 154 153 151 148 146 145 142 141 140 138 134 129 127 125 123 123 119 115 115 115 116 120 132
177 175 173 171 169 169 169 169 168 166 165 165 164 164 163 162 161 161 160 158 157 154 151 151 150 148 146 144 141 138 134 130 126 125 122 115 113 115 114 117 127 137
179 177 176 175 173 172 171 171 170 169 167 167 167 166 166 165 164 164 164 161 159 156 156 156 154 152 149 146 144 139 134 129 126 124 121 114 111 113 113 115 126 138
181 181 179 179 177 175 174 173 171 171 170 170 170 170 169 168 168 167 165 164 163 161 160 160 158 155 151 148 146 140 133 129 126 123 120 115 110 109 110 108 112 138
184 183 182 182 180 178 177 176 175 174 173 173 173 173 173 172 171 170 167 167 168 166 165 163 160 157 154 151 147 142 138 135 130 126 121 116 114 113 111 109 125 265
187 186 185 184 183 181 180 179 178 177 177 177 177 177 177 175 174 173 171 171 172 171 168 166 163 160 156 152 148 144 143 140 135 131 125 121 121 122 121 122 183 266
188 188 187 187 185 184 184 182 181 181 180 181 180 180 179 178 177 176 176 176 176 174 172 168 166 163 158 154 152 151 150 146 140 135 133 130 128 130 134 137 182 246
190 189 189 189 188 187 186 185 184 184 184 184 183 183 182 182 181 180 180 181 179 177 174 172 169 165 160 159 161 161 158 154 147 144 144 142 137 135 140 149 191 238
191 190 190 191 190 189 189 188 187 187 187 188 186 185 185 185 185 184 184 183 182 179 177 175 171 167 165 167 169 170 167 160 156 155 155 152 147 143 145 159 197 242
191 192 192 193 192 192 191 190 190 190 190 190 189 188 187 187 187 188 187 186 184 182 180 177 174 172 172 173 174 177 175 168 165 165 165 162 156 155 162 178 208 248
192 193 194 194 194 194 194 193 193 193 192 192 192 191 190 189 189 190 190 190 188 186 183 181 179 179 179 178 179 181 182 178 176 176 176 174 172 175 184 199 232 258
194 194 195 196 196 196 196 196 195 195 194 194 195 194 193 192 192 193 194 193 192 190 187 185 184 185 185 184 184 185 186 187 188 188 188 189 191 197 209 226 246 263
195 196 196 197 198 199 199 198 197 197 197 197 197 197 196 195 195 196 197 197 195 192 191 190 189 190 190 190 191 191 192 195 197 199 200 203 208 214 225 242 256 267
196 197 197 198 200 201 201 200 199 199 199 199 198 199 200 200 199 199 199 199 198 196 194 194 194 194 194 195 196 197 199 203 206 208 210 212 218 225 235 247 261 271
197 197 198 199 201 202 202 202 201 200 200 200 200 201 202 203 202 202 202 200 199 198 198 198 199 200 200 200 202 203 205 209 213 216 218 221 224 231 241 250 260 270
197 198 199 200 201 203 203 203 202 201 201 201 202 203 204 205 205 205 205 204 201 201 201 202 203 205 206 207 209 211 212 214 218 222 224 227 230 235 244 253 259 266
197 198 199 200 202 203 204 203 202 202 202 203 204 205 206 207 208 208 208 207 205 204 205 207 208 208 209 210 213 216 218 220 224 229 230 231 235 239 244 252 257 263
197 198 199 200 202 203 204 204 203 203 203 204 205 207 208 209 210 211 211 209 209 209 210 212 213 212 211 213 217 220 222 225 228 233 236 237 240 244 247 251 254 259
197 198 199 200 202 203 204 204 203 204 205 206 208 209 210 211 212 213 213 213 213 213 215 217 217 216 215 217 221 224 227 229 232 237 241 242 244 248 250 252 255 258
198 199 200 201 203 204 204 205 206 207 208 209 210 211 211 213 214 215 216 216 217 218 220 221 221 219 219 221 225 228 231 235 237 240 243 246 247 251 253 254 256 260
201 202 202 203 204 204 205 206 208 210 210 211 212 213 215 216 217 218 219 219 221 222 223 224 224 223 223 226 228 230 234 239 242 243 244 247 249 252 254 255 256 259
204 204 205 205 205 206 207 208 210 212 212 213 214 216 218 219 220 221 222 223 224 225 225 227 227 225 226 229 231 232 234 239 244 247 247 249 252 254 256 256 255 257
207 207 207 206 207 208 209 211 212 213 214 215 216 218 219 221 223 224 226 227 227 227 228 230 230 228 228 231 233 234 235 239 244 248 250 253 256 258 258 256 255 256
209 209 210 209 210 211 213 214 215 216 218 219 220 221 222 224 226 228 229 230 230 231 232 233 233 232 230 232 235 236 237 241 245 248 250 254 258 259 258 256 256 257
212 212 213 213 214 216 217 217 218 220 221 223 223 225 226 227 229 230 232 233 233 234 234 235 237 236 233 234 237 238 240 244 246 247 249 254 257 258 258 257 258 258
215 215 217 218 219 221 221 222 223 223 224 225 226 227 228 230 232 233 235 236 236 236 236 237 239 240 237 237 239 241 242 244 246 246 249 254 256 256 257 259 259 258